Time,TemperatureF,DewpointF,PressureIn,WindDirection,WindDirectionDegrees,WindSpeedMPH,WindSpeedGustMPH,Humidity,HourlyPrecipIn,Conditions,Clouds,dailyrainin,SoftwareType,DateUTC
2013-01-19 00:02:00,49.5,44.2,30.32,NW,315,0.0,0.0,82,0.00,SCT,,0.00,WeatherDisplay:10.37,2013-01-19 05:02:00,
2013-01-19 00:03:00,49.5,44.2,30.32,NW,315,0.0,0.0,82,0.00,SCT,,0.00,WeatherDisplay:10.37,2013-01-19 05:03:00,
2013-01-19 00:04:00,49.5,44.2,30.31,NW,315,0.0,0.0,82,0.00,SCT,,0.00,WeatherDisplay:10.37,2013-01-19 05:04:00,
2013-01-19 00:09:00,49.6,44.4,30.32,NW,315,0.0,1.1,82,0.00,SCT,,0.00,WeatherDisplay:10.37,2013-01-19 05:09:00,
2013-01-19 00:14:00,49.6,44.7,30.31,North,0,0.0,0.0,83,0.00,SCT,,0.00,WeatherDisplay:10.37,2013-01-19 05:14:00,
2013-01-19 00:19:00,49.8,44.5,30.31,North,0,0.2,2.3,82,0.00,SCT,,0.00,WeatherDisplay:10.37,2013-01-19 05:19:00,
2013-01-19 00:24:00,49.8,44.9,30.31,North,0,0.6,2.3,83,0.00,SCT,,0.00,WeatherDisplay:10.37,2013-01-19 05:24:00,
2013-01-19 00:29:00,49.8,44.9,30.31,North,0,0.0,0.0,83,0.00,SCT,,0.00,WeatherDisplay:10.37,2013-01-19 05:29:00,
2013-01-19 00:34:00,49.8,44.9,30.31,NE,45,0.0,0.0,83,0.00,SCT,,0.00,WeatherDisplay:10.37,2013-01-19 05:34:00,
2013-01-19 00:39:00,50.2,45.2,30.31,NE,45,0.0,0.0,83,0.00,SCT,,0.00,WeatherDisplay:10.37,2013-01-19 05:39:00,
2013-01-19 00:44:00,50.0,45.0,30.31,NE,45,0.0,1.4,83,0.00,SCT,,0.00,WeatherDisplay:10.37,2013-01-19 05:44:00,
2013-01-19 00:49:00,50.0,45.0,30.31,NE,45,0.0,2.3,83,0.00,SCT,,0.00,WeatherDisplay:10.37,2013-01-19 05:49:00,
2013-01-19 00:54:00,49.6,44.7,30.31,NE,45,0.1,2.3,83,0.00,SCT,,0.00,WeatherDisplay:10.37,2013-01-19 05:54:00,
2013-01-19 00:59:00,49.6,44.7,30.31,NE,45,0.0,0.0,83,0.00,SCT,,0.00,WeatherDisplay:10.37,2013-01-19 05:59:00,
2013-01-19 01:04:00,49.3,44.6,30.30,NW,315,0.6,2.3,84,0.00,SCT,,0.00,WeatherDisplay:10.37,2013-01-19 06:04:00,
2013-01-19 01:09:00,49.5,44.8,30.31,North,0,0.1,2.8,84,0.00,SCT,,0.00,WeatherDisplay:10.37,2013-01-19 06:09:00,
2013-01-19 01:14:00,49.6,44.7,30.31,North,0,0.7,5.8,83,0.00,SCT,,0.00,WeatherDisplay:10.37,2013-01-19 06:14:00,
2013-01-19 01:19:00,49.8,44.9,30.31,NW,315,0.5,2.3,83,0.00,SCT,,0.00,WeatherDisplay:10.37,2013-01-19 06:19:00,
2013-01-19 01:24:00,49.8,44.9,30.30,North,0,0.7,2.3,83,0.00,SCT,,0.00,WeatherDisplay:10.37,2013-01-19 06:24:00,
2013-01-19 01:29:00,49.8,44.9,30.30,NE,45,0.4,2.8,83,0.00,SCT,,0.00,WeatherDisplay:10.37,2013-01-19 06:29:00,
2013-01-19 01:34:00,49.6,44.7,30.30,NE,45,0.9,2.8,83,0.00,SCT,,0.00,WeatherDisplay:10.37,2013-01-19 06:34:00,
2013-01-19 01:39:00,49.6,44.7,30.30,North,0,0.8,4.2,83,0.00,SCT,,0.00,WeatherDisplay:10.37,2013-01-19 06:39:00,
2013-01-19 01:44:00,49.6,44.7,30.30,NE,45,1.2,4.6,83,0.00,SCT,,0.00,WeatherDisplay:10.37,2013-01-19 06:44:00,
2013-01-19 01:49:00,49.6,45.0,30.30,North,0,1.1,2.3,84,0.00,SCT,,0.00,WeatherDisplay:10.37,2013-01-19 06:49:00,
2013-01-19 01:54:00,49.5,44.8,30.30,NE,45,1.5,8.4,84,0.00,SCT,,0.00,WeatherDisplay:10.37,2013-01-19 06:54:00,
2013-01-19 01:59:00,49.6,45.0,30.30,North,0,0.8,4.6,84,0.00,SCT,,0.00,WeatherDisplay:10.37,2013-01-19 06:59:00,
2013-01-19 02:04:00,49.8,45.2,30.30,North,0,0.8,4.6,84,0.00,SCT,,0.00,WeatherDisplay:10.37,2013-01-19 07:04:00,
2013-01-19 02:09:00,50.0,45.0,30.30,North,0,2.2,5.8,83,0.00,SCT,,0.00,WeatherDisplay:10.37,2013-01-19 07:09:00,
2013-01-19 02:14:00,50.2,45.2,30.30,North,0,1.3,2.8,83,0.00,SCT,,0.00,WeatherDisplay:10.37,2013-01-19 07:14:00,
2013-01-19 02:19:00,50.2,45.2,30.30,North,0,0.4,2.8,83,0.00,SCT,,0.00,WeatherDisplay:10.37,2013-01-19 07:19:00,
2013-01-19 02:24:00,50.2,45.2,30.30,North,0,0.9,2.3,83,0.00,SCT,,0.00,WeatherDisplay:10.37,2013-01-19 07:24:00,
2013-01-19 02:29:00,50.2,45.2,30.30,NE,45,1.3,2.3,83,0.00,SCT,,0.00,WeatherDisplay:10.37,2013-01-19 07:29:00,
2013-01-19 02:34:00,50.2,45.2,30.30,North,0,0.4,2.3,83,0.00,SCT,,0.00,WeatherDisplay:10.37,2013-01-19 07:34:00,
2013-01-19 02:39:00,50.0,45.0,30.30,NE,45,0.8,4.6,83,0.00,SCT,,0.00,WeatherDisplay:10.37,2013-01-19 07:39:00,
2013-01-19 02:44:00,50.0,45.0,30.31,North,0,1.4,4.6,83,0.00,SCT,,0.00,WeatherDisplay:10.37,2013-01-19 07:44:00,
2013-01-19 02:49:00,50.4,45.4,30.31,NE,45,2.2,5.8,83,0.00,SCT,,0.00,WeatherDisplay:10.37,2013-01-19 07:49:00,
2013-01-19 02:54:00,50.4,45.4,30.30,NE,45,0.7,2.8,83,0.00,SCT,,0.00,WeatherDisplay:10.37,2013-01-19 07:54:00,
2013-01-19 02:59:00,50.5,45.6,30.30,NE,45,1.0,2.3,83,0.00,SCT,,0.00,WeatherDisplay:10.37,2013-01-19 07:59:00,
2013-01-19 03:04:00,50.5,45.6,30.30,North,0,1.2,2.3,83,0.00,SCT,,0.00,WeatherDisplay:10.37,2013-01-19 08:04:00,
2013-01-19 03:09:00,50.4,45.4,30.30,North,0,1.0,2.8,83,0.00,SCT,,0.00,WeatherDisplay:10.37,2013-01-19 08:09:00,
2013-01-19 03:14:00,50.4,45.4,30.30,North,0,1.2,4.6,83,0.00,SCT,,0.00,WeatherDisplay:10.37,2013-01-19 08:14:00,
2013-01-19 03:19:00,50.2,45.2,30.30,North,0,1.8,4.6,83,0.00,SCT,,0.00,WeatherDisplay:10.37,2013-01-19 08:19:00,
2013-01-19 03:24:00,50.2,45.2,30.29,North,0,0.6,5.6,83,0.00,SCT,,0.00,WeatherDisplay:10.37,2013-01-19 08:24:00,
2013-01-19 03:29:00,49.8,44.9,30.29,North,0,1.0,4.6,83,0.00,SCT,,0.00,WeatherDisplay:10.37,2013-01-19 08:29:00,
2013-01-19 03:34:00,49.8,44.9,30.29,North,0,1.7,4.2,83,0.00,SCT,,0.00,WeatherDisplay:10.37,2013-01-19 08:34:00,
2013-01-19 03:39:00,49.6,45.0,30.29,North,0,1.8,5.8,84,0.00,SCT,,0.00,WeatherDisplay:10.37,2013-01-19 08:39:00,
2013-01-19 03:44:00,49.6,44.7,30.29,North,0,1.0,4.2,83,0.00,SCT,,0.00,WeatherDisplay:10.37,2013-01-19 08:44:00,
2013-01-19 03:49:00,49.6,44.7,30.29,North,0,1.0,2.3,83,0.00,SCT,,0.00,WeatherDisplay:10.37,2013-01-19 08:49:00,
2013-01-19 03:54:00,49.6,45.0,30.29,North,0,1.1,5.8,84,0.00,SCT,,0.00,WeatherDisplay:10.37,2013-01-19 08:54:00,
2013-01-19 03:59:00,49.6,45.0,30.29,North,0,1.7,5.8,84,0.00,SCT,,0.00,WeatherDisplay:10.37,2013-01-19 08:59:00,
2013-01-19 04:04:00,49.8,45.2,30.29,NE,45,2.0,5.8,84,0.00,SCT,,0.00,WeatherDisplay:10.37,2013-01-19 09:04:00,
2013-01-19 04:09:00,50.2,45.5,30.28,North,0,1.9,2.8,84,0.00,SCT,,0.00,WeatherDisplay:10.37,2013-01-19 09:09:00,
2013-01-19 04:14:00,50.4,45.7,30.28,North,0,2.3,4.6,84,0.00,BKN,,0.00,WeatherDisplay:10.37,2013-01-19 09:14:00,
2013-01-19 04:19:00,50.4,45.7,30.28,East,90,0.7,2.8,84,0.00,BKN,,0.00,WeatherDisplay:10.37,2013-01-19 09:19:00,
2013-01-19 04:24:00,50.2,45.5,30.28,North,0,1.7,5.8,84,0.00,BKN,,0.00,WeatherDisplay:10.37,2013-01-19 09:24:00,
2013-01-19 04:29:00,50.2,45.5,30.28,NE,45,2.2,5.8,84,0.00,BKN,,0.00,WeatherDisplay:10.37,2013-01-19 09:29:00,
2013-01-19 04:34:00,50.2,45.5,30.28,North,0,2.2,4.6,84,0.00,BKN,,0.00,WeatherDisplay:10.37,2013-01-19 09:34:00,
2013-01-19 04:39:00,50.2,45.5,30.28,North,0,1.7,4.6,84,0.00,BKN,,0.00,WeatherDisplay:10.37,2013-01-19 09:39:00,
2013-01-19 04:44:00,50.2,45.5,30.28,NE,45,1.6,4.6,84,0.00,BKN,,0.00,WeatherDisplay:10.37,2013-01-19 09:44:00,
2013-01-19 04:49:00,50.2,45.5,30.28,NE,45,0.8,4.6,84,0.00,BKN,,0.00,WeatherDisplay:10.37,2013-01-19 09:49:00,
2013-01-19 04:54:00,50.0,45.4,30.28,North,0,2.6,4.6,84,0.00,BKN,,0.00,WeatherDisplay:10.37,2013-01-19 09:54:00,
2013-01-19 04:59:00,49.8,45.2,30.28,North,0,2.5,5.8,84,0.00,BKN,,0.00,WeatherDisplay:10.37,2013-01-19 09:59:00,
2013-01-19 05:04:00,49.8,45.5,30.28,NE,45,2.7,5.8,85,0.00,SCT,,0.00,WeatherDisplay:10.37,2013-01-19 10:04:00,
2013-01-19 05:09:00,49.8,45.5,30.28,North,0,2.2,4.6,85,0.00,SCT,,0.00,WeatherDisplay:10.37,2013-01-19 10:09:00,
2013-01-19 05:14:00,49.8,45.5,30.28,NE,45,2.1,5.8,85,0.00,SCT,,0.00,WeatherDisplay:10.37,2013-01-19 10:14:00,
2013-01-19 05:19:00,49.6,45.3,30.28,North,0,1.6,4.6,85,0.00,SCT,,0.00,WeatherDisplay:10.37,2013-01-19 10:19:00,
2013-01-19 05:24:00,49.6,45.6,30.28,NE,45,2.4,5.8,86,0.00,SCT,,0.00,WeatherDisplay:10.37,2013-01-19 10:24:00,
2013-01-19 05:29:00,49.8,45.8,30.28,NE,45,2.0,5.8,86,0.00,SCT,,0.00,WeatherDisplay:10.37,2013-01-19 10:29:00,
2013-01-19 05:34:00,50.2,46.2,30.28,NE,45,1.8,4.6,86,0.00,SCT,,0.00,WeatherDisplay:10.37,2013-01-19 10:34:00,
2013-01-19 05:39:00,50.2,46.2,30.28,NE,45,2.8,5.8,86,0.00,SCT,,0.00,WeatherDisplay:10.37,2013-01-19 10:39:00,
2013-01-19 05:44:00,50.5,46.2,30.28,NE,45,3.5,5.8,85,0.00,SCT,,0.00,WeatherDisplay:10.37,2013-01-19 10:44:00,
2013-01-19 05:49:00,50.5,46.2,30.28,North,0,2.3,5.8,85,0.00,SCT,,0.00,WeatherDisplay:10.37,2013-01-19 10:49:00,
2013-01-19 05:54:00,50.4,46.0,30.28,NE,45,2.1,4.6,85,0.00,SCT,,0.00,WeatherDisplay:10.37,2013-01-19 10:54:00,
2013-01-19 05:59:00,50.5,46.2,30.29,NE,45,2.0,5.8,85,0.00,SCT,,0.00,WeatherDisplay:10.37,2013-01-19 10:59:00,
2013-01-19 06:04:00,50.5,46.2,30.28,North,0,1.6,4.6,85,0.00,BKN,,0.00,WeatherDisplay:10.37,2013-01-19 11:04:00,
2013-01-19 06:09:00,50.5,46.5,30.28,NE,45,1.5,4.6,86,0.00,BKN,,0.00,WeatherDisplay:10.37,2013-01-19 11:09:00,
2013-01-19 06:14:00,50.5,46.5,30.28,NE,45,3.1,5.6,86,0.00,BKN,,0.00,WeatherDisplay:10.37,2013-01-19 11:14:00,
2013-01-19 07:47:00,50.9,46.9,30.30,North,0,1.2,8.4,86,0.00,BKN,,0.00,WeatherDisplay:10.37,2013-01-19 12:47:00,
2013-01-19 07:48:00,50.9,46.9,30.30,North,0,2.3,5.8,86,0.00,BKN,,0.00,WeatherDisplay:10.37,2013-01-19 12:48:00,
2013-01-19 07:49:00,50.9,46.9,30.30,NE,45,2.2,5.8,86,0.00,BKN,,0.00,WeatherDisplay:10.37,2013-01-19 12:49:00,
2013-01-19 07:54:00,51.1,47.0,30.30,NE,45,2.9,5.8,86,0.00,BKN,,0.00,WeatherDisplay:10.37,2013-01-19 12:54:00,
2013-01-19 07:59:00,51.1,47.0,30.30,North,0,1.6,4.6,86,0.00,BKN,,0.00,WeatherDisplay:10.37,2013-01-19 12:59:00,
2013-01-19 08:04:00,51.1,47.0,30.30,NW,315,2.1,4.6,86,0.00,BKN,,0.00,WeatherDisplay:10.37,2013-01-19 13:04:00,
2013-01-19 08:09:00,51.4,47.4,30.30,North,0,2.1,4.6,86,0.00,BKN,,0.00,WeatherDisplay:10.37,2013-01-19 13:09:00,
2013-01-19 08:13:00,51.4,47.4,30.31,NE,45,2.0,5.8,86,0.00,FEW,,0.00,WeatherDisplay:10.37,2013-01-19 13:13:00,
2013-01-19 08:18:00,51.4,47.4,30.31,NE,45,2.3,5.8,86,0.00,FEW,,0.00,WeatherDisplay:10.37,2013-01-19 13:18:00,
2013-01-19 08:23:00,51.6,47.6,30.31,North,0,2.3,4.6,86,0.00,FEW,,0.00,WeatherDisplay:10.37,2013-01-19 13:23:00,
2013-01-19 08:28:00,51.6,47.6,30.31,North,0,2.2,4.6,86,0.00,FEW,,0.00,WeatherDisplay:10.37,2013-01-19 13:28:00,
2013-01-19 08:33:00,52.0,47.9,30.31,NW,315,2.4,5.8,86,0.00,FEW,,0.00,WeatherDisplay:10.37,2013-01-19 13:33:00,
2013-01-19 08:39:00,52.0,47.9,30.31,NW,315,2.0,5.8,86,0.00,FEW,,0.00,WeatherDisplay:10.37,2013-01-19 13:39:00,
2013-01-19 08:44:00,52.3,48.3,30.31,NE,45,1.8,4.2,86,0.00,FEW,,0.00,WeatherDisplay:10.37,2013-01-19 13:44:00,
2013-01-19 08:49:00,52.5,48.5,30.31,North,0,1.4,5.8,86,0.00,FEW,,0.00,WeatherDisplay:10.37,2013-01-19 13:49:00,
2013-01-19 08:54:00,52.5,48.5,30.31,NE,45,0.8,5.8,86,0.00,FEW,,0.00,WeatherDisplay:10.37,2013-01-19 13:54:00,
2013-01-19 08:59:00,52.9,48.5,30.32,NE,45,2.3,4.6,85,0.00,FEW,,0.00,WeatherDisplay:10.37,2013-01-19 13:59:00,
2013-01-19 09:04:00,53.2,48.5,30.32,North,0,2.3,5.8,84,0.00,FEW,,0.00,WeatherDisplay:10.37,2013-01-19 14:04:00,
2013-01-19 09:09:00,53.2,48.5,30.32,NE,45,0.9,4.6,84,0.00,FEW,,0.00,WeatherDisplay:10.37,2013-01-19 14:09:00,
2013-01-19 09:14:00,53.6,48.9,30.32,NW,315,0.5,2.8,84,0.00,SCT,,0.00,WeatherDisplay:10.37,2013-01-19 14:14:00,
2013-01-19 09:19:00,54.0,49.2,30.32,North,0,2.5,5.8,84,0.00,SCT,,0.00,WeatherDisplay:10.37,2013-01-19 14:19:00,
2013-01-19 09:24:00,54.1,49.4,30.32,NW,315,1.9,4.6,84,0.00,SCT,,0.00,WeatherDisplay:10.37,2013-01-19 14:24:00,
2013-01-19 09:29:00,54.5,49.8,30.32,North,0,1.1,4.6,84,0.00,SCT,,0.00,WeatherDisplay:10.37,2013-01-19 14:29:00,
2013-01-19 09:34:00,54.7,49.9,30.33,NE,45,1.9,4.6,84,0.00,SCT,,0.00,WeatherDisplay:10.37,2013-01-19 14:34:00,
2013-01-19 09:39:00,55.2,50.5,30.33,NE,45,1.9,4.6,84,0.00,SCT,,0.00,WeatherDisplay:10.37,2013-01-19 14:39:00,
2013-01-19 09:44:00,55.4,50.6,30.33,NE,45,1.1,2.8,84,0.00,SCT,,0.00,WeatherDisplay:10.37,2013-01-19 14:44:00,
2013-01-19 09:49:00,55.9,50.9,30.33,NE,45,1.8,5.8,83,0.00,SCT,,0.00,WeatherDisplay:10.37,2013-01-19 14:49:00,
2013-01-19 09:54:00,56.5,51.7,30.33,NE,45,1.5,2.8,84,0.00,SCT,,0.00,WeatherDisplay:10.37,2013-01-19 14:54:00,
2013-01-19 09:59:00,57.0,51.9,30.33,North,0,1.9,4.6,83,0.00,SCT,,0.00,WeatherDisplay:10.37,2013-01-19 14:59:00,
2013-01-19 10:04:00,57.7,52.3,30.33,NE,45,1.4,2.3,82,0.00,SCT,,0.00,WeatherDisplay:10.37,2013-01-19 15:04:00,
2013-01-19 10:09:00,58.1,52.6,30.33,NE,45,2.7,5.8,82,0.00,SCT,,0.00,WeatherDisplay:10.37,2013-01-19 15:09:00,
2013-01-19 10:14:00,58.5,53.0,30.33,North,0,2.3,8.1,82,0.00,SCT,,0.00,WeatherDisplay:10.37,2013-01-19 15:14:00,
2013-01-19 10:19:00,59.5,53.7,30.32,East,90,2.2,4.6,81,0.00,SCT,,0.00,WeatherDisplay:10.37,2013-01-19 15:19:00,
2013-01-19 10:24:00,60.1,53.9,30.33,North,0,1.5,4.2,80,0.00,SCT,,0.00,WeatherDisplay:10.37,2013-01-19 15:24:00,
2013-01-19 10:29:00,60.6,54.1,30.33,North,0,2.1,4.1,79,0.00,SCT,,0.00,WeatherDisplay:10.37,2013-01-19 15:29:00,
2013-01-19 10:34:00,61.2,54.2,30.32,North,0,3.2,4.6,78,0.00,SCT,,0.00,WeatherDisplay:10.37,2013-01-19 15:34:00,
2013-01-19 10:39:00,61.3,54.4,30.32,NW,315,2.8,5.8,78,0.00,SCT,,0.00,WeatherDisplay:10.37,2013-01-19 15:39:00,
2013-01-19 10:44:00,61.7,54.4,30.32,North,0,3.2,5.8,77,0.00,SCT,,0.00,WeatherDisplay:10.37,2013-01-19 15:44:00,
2013-01-19 10:49:00,61.9,54.6,30.32,NE,45,2.7,5.8,77,0.00,SCT,,0.00,WeatherDisplay:10.37,2013-01-19 15:49:00,
2013-01-19 10:54:00,61.3,54.4,30.32,North,0,2.5,5.6,78,0.00,SCT,,0.00,WeatherDisplay:10.37,2013-01-19 15:54:00,
2013-01-19 10:59:00,61.5,54.6,30.31,North,0,2.1,6.3,78,0.00,SCT,,0.00,WeatherDisplay:10.37,2013-01-19 15:59:00,
2013-01-19 11:04:00,61.7,54.8,30.31,East,90,2.6,4.6,78,0.00,SCT,,0.00,WeatherDisplay:10.37,2013-01-19 16:04:00,
2013-01-19 11:09:00,61.9,55.3,30.31,North,0,1.6,4.6,79,0.00,SCT,,0.00,WeatherDisplay:10.37,2013-01-19 16:09:00,
2013-01-19 11:14:00,62.2,54.9,30.31,North,0,2.2,5.8,77,0.00,SCT,,0.00,WeatherDisplay:10.37,2013-01-19 16:14:00,
2013-01-19 11:19:00,62.2,54.9,30.31,NE,45,2.8,5.8,77,0.00,SCT,,0.00,WeatherDisplay:10.37,2013-01-19 16:19:00,
2013-01-19 11:24:00,63.0,55.6,30.31,NE,45,2.8,5.8,77,0.00,SCT,,0.00,WeatherDisplay:10.37,2013-01-19 16:24:00,
2013-01-19 11:29:00,63.1,55.1,30.31,North,0,1.5,4.2,75,0.00,SCT,,0.00,WeatherDisplay:10.37,2013-01-19 16:29:00,
2013-01-19 11:34:00,63.7,56.0,30.31,North,0,3.1,8.1,76,0.00,SCT,,0.00,WeatherDisplay:10.37,2013-01-19 16:34:00,
2013-01-19 11:39:00,64.0,55.6,30.31,NE,45,0.9,4.6,74,0.00,SCT,,0.00,WeatherDisplay:10.37,2013-01-19 16:39:00,
2013-01-19 11:44:00,64.0,56.0,30.30,North,0,1.9,5.6,75,0.00,SCT,,0.00,WeatherDisplay:10.37,2013-01-19 16:44:00,
2013-01-19 11:49:00,64.0,55.2,30.30,NE,45,1.9,5.8,73,0.00,SCT,,0.00,WeatherDisplay:10.37,2013-01-19 16:49:00,
2013-01-19 11:54:00,64.0,55.2,30.30,NW,315,3.6,5.8,73,0.00,SCT,,0.00,WeatherDisplay:10.37,2013-01-19 16:54:00,
2013-01-19 11:59:00,63.9,55.4,30.30,NE,45,3.3,5.8,74,0.00,SCT,,0.00,WeatherDisplay:10.37,2013-01-19 16:59:00,
2013-01-19 12:04:00,63.7,55.2,30.29,NW,315,2.6,8.1,74,0.00,SCT,,0.00,WeatherDisplay:10.37,2013-01-19 17:04:00,
2013-01-19 12:09:00,63.9,55.4,30.29,North,0,2.3,4.6,74,0.00,SCT,,0.00,WeatherDisplay:10.37,2013-01-19 17:09:00,
2013-01-19 12:14:00,63.3,54.9,30.29,NE,45,3.1,5.6,74,0.00,SCT,,0.00,WeatherDisplay:10.37,2013-01-19 17:14:00,
2013-01-19 12:19:00,63.7,55.6,30.28,NE,45,2.5,5.8,75,0.00,SCT,,0.00,WeatherDisplay:10.37,2013-01-19 17:19:00,
2013-01-19 12:24:00,64.2,55.8,30.28,NE,45,2.1,5.8,74,0.00,SCT,,0.00,WeatherDisplay:10.37,2013-01-19 17:24:00,
2013-01-19 12:30:00,64.0,55.6,30.27,NW,315,4.1,5.8,74,0.00,SCT,,0.00,WeatherDisplay:10.37,2013-01-19 17:30:00,
2013-01-19 12:35:00,64.6,55.7,30.27,East,90,2.0,5.8,73,0.00,SCT,,0.00,WeatherDisplay:10.37,2013-01-19 17:35:00,
2013-01-19 12:40:00,64.4,55.6,30.26,North,0,1.9,5.8,73,0.00,SCT,,0.00,WeatherDisplay:10.37,2013-01-19 17:40:00,
2013-01-19 12:45:00,64.0,55.6,30.26,North,0,3.4,5.8,74,0.00,SCT,,0.00,WeatherDisplay:10.37,2013-01-19 17:45:00,
2013-01-19 12:50:00,64.0,55.6,30.26,NE,45,2.8,5.8,74,0.00,SCT,,0.00,WeatherDisplay:10.37,2013-01-19 17:50:00,
2013-01-19 12:56:00,64.0,56.0,30.26,NE,45,2.8,5.6,75,0.00,SCT,,0.00,WeatherDisplay:10.37,2013-01-19 17:56:00,
2013-01-19 13:01:00,64.0,56.0,30.25,NE,45,2.5,5.6,75,0.00,BKN,,0.00,WeatherDisplay:10.37,2013-01-19 18:01:00,
2013-01-19 13:06:00,64.0,55.6,30.25,North,0,3.0,5.6,74,0.00,BKN,,0.00,WeatherDisplay:10.37,2013-01-19 18:06:00,
2013-01-19 13:12:00,64.0,56.0,30.25,North,0,1.4,8.1,75,0.00,BKN,,0.00,WeatherDisplay:10.37,2013-01-19 18:12:00,
2013-01-19 13:18:00,64.0,56.0,30.24,NW,315,3.9,6.9,75,0.00,BKN,,0.00,WeatherDisplay:10.37,2013-01-19 18:18:00,
2013-01-19 13:23:00,63.7,55.6,30.24,North,0,3.1,5.8,75,0.00,BKN,,0.00,WeatherDisplay:10.37,2013-01-19 18:23:00,
2013-01-19 13:28:00,63.5,55.8,30.24,North,0,2.3,5.6,76,0.00,BKN,,0.00,WeatherDisplay:10.37,2013-01-19 18:28:00,
2013-01-19 13:33:00,64.0,56.0,30.24,NE,45,3.0,8.1,75,0.00,BKN,,0.00,WeatherDisplay:10.37,2013-01-19 18:33:00,
2013-01-19 13:39:00,63.9,56.1,30.23,NE,45,2.2,8.4,76,0.00,BKN,,0.00,WeatherDisplay:10.37,2013-01-19 18:39:00,
2013-01-19 13:44:00,63.9,55.8,30.23,NE,45,2.2,4.6,75,0.00,BKN,,0.00,WeatherDisplay:10.37,2013-01-19 18:44:00,
2013-01-19 13:49:00,63.3,56.0,30.23,NE,45,2.4,5.8,77,0.00,BKN,,0.00,WeatherDisplay:10.37,2013-01-19 18:49:00,
2013-01-19 13:54:00,63.9,56.1,30.23,North,0,3.6,8.1,76,0.00,BKN,,0.00,WeatherDisplay:10.37,2013-01-19 18:54:00,
2013-01-19 13:59:00,63.7,56.0,30.22,NW,315,2.7,5.8,76,0.00,BKN,,0.00,WeatherDisplay:10.37,2013-01-19 18:59:00,
2013-01-19 14:04:00,63.7,56.3,30.21,NE,45,3.0,5.8,77,0.00,BKN,,0.00,WeatherDisplay:10.37,2013-01-19 19:04:00,
2013-01-19 14:09:00,63.7,56.7,30.21,East,90,2.1,5.8,78,0.00,BKN,,0.00,WeatherDisplay:10.37,2013-01-19 19:09:00,
2013-01-19 14:14:00,63.5,56.5,30.21,North,0,3.2,5.8,78,0.00,BKN,,0.00,WeatherDisplay:10.37,2013-01-19 19:14:00,
2013-01-19 14:20:00,63.3,56.0,30.21,North,0,3.1,5.8,77,0.00,BKN,,0.00,WeatherDisplay:10.37,2013-01-19 19:20:00,
2013-01-19 14:25:00,62.8,55.8,30.21,East,90,2.6,8.1,78,0.00,BKN,,0.00,WeatherDisplay:10.37,2013-01-19 19:25:00,
2013-01-19 14:30:00,63.0,56.0,30.20,North,0,3.2,5.8,78,0.00,BKN,,0.00,WeatherDisplay:10.37,2013-01-19 19:30:00,
2013-01-19 14:35:00,62.4,55.8,30.20,NE,45,1.6,5.8,79,0.00,BKN,,0.00,WeatherDisplay:10.37,2013-01-19 19:35:00,
2013-01-19 14:41:00,62.2,55.6,30.20,North,0,1.8,4.2,79,0.00,BKN,,0.00,WeatherDisplay:10.37,2013-01-19 19:41:00,
2013-01-19 14:47:00,62.4,56.2,30.20,North,0,2.2,5.8,80,0.00,BKN,,0.00,WeatherDisplay:10.37,2013-01-19 19:47:00,
2013-01-19 14:53:00,62.2,56.0,30.20,North,0,3.2,5.6,80,0.00,BKN,,0.00,WeatherDisplay:10.37,2013-01-19 19:53:00,
2013-01-19 14:58:00,61.7,55.8,30.20,North,0,2.6,5.8,81,0.00,BKN,,0.00,WeatherDisplay:10.37,2013-01-19 19:58:00,
2013-01-19 15:03:00,61.5,55.6,30.20,North,0,1.7,2.8,81,0.00,BKN,,0.00,WeatherDisplay:10.37,2013-01-19 20:03:00,
2013-01-19 15:08:00,61.2,55.6,30.20,North,0,2.5,5.8,82,0.00,BKN,,0.00,WeatherDisplay:10.37,2013-01-19 20:08:00,
2013-01-19 15:13:00,61.3,55.8,30.19,East,90,2.0,4.6,82,0.00,BKN,,0.00,WeatherDisplay:10.37,2013-01-19 20:13:00,
2013-01-19 15:19:00,61.5,56.0,30.19,NE,45,1.0,4.6,82,0.00,BKN,,0.00,WeatherDisplay:10.37,2013-01-19 20:19:00,
2013-01-19 15:24:00,61.3,55.8,30.20,North,0,1.7,4.6,82,0.00,BKN,,0.00,WeatherDisplay:10.37,2013-01-19 20:24:00,
2013-01-19 15:29:00,61.3,56.1,30.20,North,0,1.8,5.8,83,0.00,BKN,,0.00,WeatherDisplay:10.37,2013-01-19 20:29:00,
2013-01-19 15:34:00,61.0,55.8,30.20,North,0,1.8,5.8,83,0.00,BKN,,0.00,WeatherDisplay:10.37,2013-01-19 20:34:00,
2013-01-19 15:39:00,60.6,55.4,30.20,North,0,0.4,2.3,83,0.00,BKN,,0.00,WeatherDisplay:10.37,2013-01-19 20:39:00,
2013-01-19 15:44:00,60.8,55.6,30.20,NE,45,1.3,5.8,83,0.00,BKN,,0.00,WeatherDisplay:10.37,2013-01-19 20:44:00,
2013-01-19 15:50:00,60.8,55.9,30.20,North,0,3.4,5.8,84,0.00,BKN,,0.00,WeatherDisplay:10.37,2013-01-19 20:50:00,
2013-01-19 15:55:00,60.6,55.8,30.20,North,0,0.3,2.8,84,0.00,BKN,,0.00,WeatherDisplay:10.37,2013-01-19 20:55:00,
2013-01-19 16:00:00,60.6,55.8,30.20,North,0,1.7,5.8,84,0.00,BKN,,0.00,WeatherDisplay:10.37,2013-01-19 21:00:00,
2013-01-19 16:05:00,60.4,55.6,30.19,NE,45,2.0,5.8,84,0.00,BKN,,0.00,WeatherDisplay:10.37,2013-01-19 21:05:00,
2013-01-19 16:11:00,60.1,55.2,30.20,NE,45,2.4,5.6,84,0.00,OVC,,0.00,WeatherDisplay:10.37,2013-01-19 21:11:00,
2013-01-19 16:16:00,60.1,55.6,30.20,NE,45,2.1,4.6,85,0.00,OVC,,0.00,WeatherDisplay:10.37,2013-01-19 21:16:00,
2013-01-19 16:21:00,60.1,55.6,30.20,NE,45,2.1,4.6,85,0.00,OVC,,0.00,WeatherDisplay:10.37,2013-01-19 21:21:00,
2013-01-19 16:26:00,59.9,55.4,30.20,East,90,1.7,5.8,85,0.00,OVC,,0.00,WeatherDisplay:10.37,2013-01-19 21:26:00,
2013-01-19 16:32:00,59.7,55.2,30.20,East,90,0.2,2.8,85,0.00,OVC,,0.00,WeatherDisplay:10.37,2013-01-19 21:32:00,
2013-01-19 16:37:00,59.9,55.7,30.20,North,0,2.5,5.8,86,0.00,OVC,,0.00,WeatherDisplay:10.37,2013-01-19 21:37:00,
2013-01-19 16:43:00,59.9,55.7,30.20,NE,45,0.6,2.8,86,0.00,OVC,,0.00,WeatherDisplay:10.37,2013-01-19 21:43:00,
2013-01-19 16:48:00,60.1,55.9,30.20,NE,45,1.3,4.6,86,0.00,OVC,,0.00,WeatherDisplay:10.37,2013-01-19 21:48:00,
2013-01-19 16:53:00,59.7,55.5,30.20,North,0,1.0,5.8,86,0.00,OVC,,0.00,WeatherDisplay:10.37,2013-01-19 21:53:00,
2013-01-19 16:59:00,59.7,55.5,30.20,North,0,1.2,4.6,86,0.00,OVC,,0.00,WeatherDisplay:10.37,2013-01-19 21:59:00,
2013-01-19 17:04:00,59.5,55.3,30.20,NE,45,2.1,5.8,86,0.00,OVC,,0.00,WeatherDisplay:10.37,2013-01-19 22:04:00,
2013-01-19 17:10:00,59.5,55.7,30.20,North,0,0.6,4.6,87,0.00,OVC,,0.00,WeatherDisplay:10.37,2013-01-19 22:10:00,
2013-01-19 17:15:00,59.2,55.3,30.20,NW,315,1.9,5.8,87,0.00,OVC,,0.00,WeatherDisplay:10.37,2013-01-19 22:15:00,
2013-01-19 17:20:00,59.2,55.3,30.20,NE,45,2.0,5.6,87,0.00,OVC,,0.00,WeatherDisplay:10.37,2013-01-19 22:20:00,
2013-01-19 17:25:00,59.2,55.3,30.20,NE,45,1.0,4.6,87,0.00,OVC,,0.00,WeatherDisplay:10.37,2013-01-19 22:25:00,
2013-01-19 17:30:00,59.2,55.3,30.20,NE,45,1.4,4.6,87,0.00,OVC,,0.00,WeatherDisplay:10.37,2013-01-19 22:30:00,
2013-01-19 17:35:00,59.0,55.4,30.20,North,0,1.2,4.6,88,0.00,OVC,,0.00,WeatherDisplay:10.37,2013-01-19 22:35:00,
2013-01-19 17:40:00,58.8,55.3,30.20,North,0,1.0,2.8,88,0.00,OVC,,0.00,WeatherDisplay:10.37,2013-01-19 22:40:00,
2013-01-19 17:45:00,58.8,55.3,30.20,North,0,0.3,4.6,88,0.00,OVC,,0.00,WeatherDisplay:10.37,2013-01-19 22:45:00,
2013-01-19 17:50:00,58.6,55.1,30.20,North,0,2.0,4.6,88,0.00,OVC,,0.00,WeatherDisplay:10.37,2013-01-19 22:50:00,
2013-01-19 17:55:00,58.6,55.4,30.20,NE,45,0.6,4.6,89,0.00,OVC,,0.00,WeatherDisplay:10.37,2013-01-19 22:55:00,
2013-01-19 18:00:00,58.6,55.4,30.20,NW,315,0.7,5.8,89,0.00,OVC,,0.00,WeatherDisplay:10.37,2013-01-19 23:00:00,
2013-01-19 18:05:00,58.6,55.4,30.20,North,0,1.3,2.8,89,0.00,OVC,,0.00,WeatherDisplay:10.37,2013-01-19 23:05:00,
2013-01-19 18:11:00,58.6,55.4,30.20,North,0,0.7,2.8,89,0.00,OVC,,0.00,WeatherDisplay:10.37,2013-01-19 23:11:00,
2013-01-19 18:16:00,58.6,55.4,30.20,NE,45,1.1,4.2,89,0.00,OVC,,0.00,WeatherDisplay:10.37,2013-01-19 23:16:00,
2013-01-19 18:21:00,58.5,55.2,30.20,North,0,2.6,6.3,89,0.00,OVC,,0.00,WeatherDisplay:10.37,2013-01-19 23:21:00,
2013-01-19 18:27:00,58.5,55.2,30.20,NE,45,0.8,4.6,89,0.00,OVC,,0.00,WeatherDisplay:10.37,2013-01-19 23:27:00,
2013-01-19 18:32:00,58.3,55.4,30.20,North,0,0.8,2.8,90,0.00,OVC,,0.00,WeatherDisplay:10.37,2013-01-19 23:32:00,
2013-01-19 18:37:00,58.5,55.5,30.20,North,0,1.6,5.8,90,0.00,OVC,,0.00,WeatherDisplay:10.37,2013-01-19 23:37:00,
2013-01-19 18:43:00,58.6,55.7,30.20,North,0,0.7,4.6,90,0.00,OVC,,0.00,WeatherDisplay:10.37,2013-01-19 23:43:00,
2013-01-19 18:48:00,58.5,55.5,30.21,North,0,3.4,4.6,90,0.00,OVC,,0.00,WeatherDisplay:10.37,2013-01-19 23:48:00,
2013-01-19 18:53:00,58.5,55.5,30.21,NE,45,0.0,4.6,90,0.00,OVC,,0.00,WeatherDisplay:10.37,2013-01-19 23:53:00,
2013-01-19 19:00:00,58.5,55.5,30.20,NE,45,1.4,5.8,90,0.00,OVC,,0.00,WeatherDisplay:10.37,2013-01-20 00:00:00,
2013-01-19 19:05:00,58.3,55.1,30.20,North,0,0.0,2.3,89,0.00,OVC,,0.00,WeatherDisplay:10.37,2013-01-20 00:05:00,
2013-01-19 19:10:00,58.3,55.4,30.20,North,0,0.3,1.4,90,0.00,OVC,,0.00,WeatherDisplay:10.37,2013-01-20 00:10:00,
2013-01-19 19:15:00,58.3,55.4,30.20,NW,315,1.4,5.8,90,0.00,OVC,,0.00,WeatherDisplay:10.37,2013-01-20 00:15:00,
2013-01-19 19:20:00,58.3,55.4,30.20,NE,45,0.0,2.3,90,0.00,OVC,,0.00,WeatherDisplay:10.37,2013-01-20 00:20:00,
2013-01-19 19:25:00,58.3,55.4,30.20,NE,45,1.6,4.6,90,0.00,OVC,,0.00,WeatherDisplay:10.37,2013-01-20 00:25:00,
2013-01-19 19:30:00,58.3,55.4,30.20,NE,45,1.1,4.6,90,0.00,OVC,,0.00,WeatherDisplay:10.37,2013-01-20 00:30:00,
2013-01-19 19:35:00,58.3,55.4,30.20,NE,45,2.3,5.8,90,0.00,OVC,,0.00,WeatherDisplay:10.37,2013-01-20 00:35:00,
2013-01-19 19:40:00,58.3,55.4,30.20,NE,45,1.6,4.6,90,0.00,OVC,,0.00,WeatherDisplay:10.37,2013-01-20 00:40:00,
2013-01-19 19:45:00,58.3,55.4,30.20,North,0,0.1,1.1,90,0.00,OVC,,0.00,WeatherDisplay:10.37,2013-01-20 00:45:00,
2013-01-19 19:50:00,58.3,55.7,30.20,North,0,0.6,2.3,91,0.00,OVC,,0.00,WeatherDisplay:10.37,2013-01-20 00:50:00,
2013-01-19 19:55:00,58.3,55.4,30.20,North,0,2.1,4.6,90,0.00,OVC,,0.00,WeatherDisplay:10.37,2013-01-20 00:55:00,
2013-01-19 20:00:00,58.3,55.7,30.20,NE,45,0.8,4.2,91,0.00,OVC,,0.00,WeatherDisplay:10.37,2013-01-20 01:00:00,
2013-01-19 20:05:00,58.3,55.7,30.20,NE,45,1.8,2.8,91,0.00,OVC,,0.00,WeatherDisplay:10.37,2013-01-20 01:05:00,
2013-01-19 20:10:00,58.3,55.7,30.20,North,0,1.9,5.8,91,0.00,OVC,,0.00,WeatherDisplay:10.37,2013-01-20 01:10:00,
2013-01-19 20:15:00,58.3,55.7,30.20,NE,45,0.7,2.3,91,0.00,OVC,,0.00,WeatherDisplay:10.37,2013-01-20 01:15:00,
2013-01-19 20:21:00,58.3,55.7,30.20,East,90,0.8,4.6,91,0.00,OVC,,0.00,WeatherDisplay:10.37,2013-01-20 01:21:00,
2013-01-19 20:26:00,58.3,55.7,30.20,North,0,1.8,6.9,91,0.00,OVC,,0.00,WeatherDisplay:10.37,2013-01-20 01:26:00,
2013-01-19 20:32:00,58.3,55.7,30.20,North,0,0.1,1.1,91,0.00,OVC,,0.00,WeatherDisplay:10.37,2013-01-20 01:32:00,
2013-01-19 20:37:00,58.3,56.0,30.20,North,0,0.2,1.1,92,0.00,OVC,,0.00,WeatherDisplay:10.37,2013-01-20 01:37:00,
2013-01-19 20:42:00,58.1,55.8,30.20,North,0,0.3,4.6,92,0.00,OVC,,0.00,WeatherDisplay:10.37,2013-01-20 01:42:00,
2013-01-19 20:48:00,57.9,55.6,30.20,North,0,0.0,0.0,92,0.00,OVC,,0.00,WeatherDisplay:10.37,2013-01-20 01:48:00,
2013-01-19 20:53:00,57.7,55.1,30.20,North,0,0.0,1.1,91,0.00,OVC,,0.00,WeatherDisplay:10.37,2013-01-20 01:53:00,
2013-01-19 20:59:00,57.6,55.3,30.19,North,0,0.0,1.1,92,0.00,OVC,,0.00,WeatherDisplay:10.37,2013-01-20 01:59:00,
2013-01-19 21:04:00,57.4,55.1,30.20,North,0,0.0,2.3,92,0.00,OVC,,0.00,WeatherDisplay:10.37,2013-01-20 02:04:00,
2013-01-19 21:09:00,57.2,55.2,30.19,North,0,0.0,0.0,93,0.00,SCT,,0.00,WeatherDisplay:10.37,2013-01-20 02:09:00,
2013-01-19 21:14:00,56.8,54.8,30.20,North,0,0.0,0.0,93,0.00,SCT,,0.00,WeatherDisplay:10.37,2013-01-20 02:14:00,
2013-01-19 21:20:00,56.8,54.8,30.20,North,0,0.0,0.0,93,0.00,SCT,,0.00,WeatherDisplay:10.37,2013-01-20 02:20:00,
2013-01-19 21:25:00,56.7,54.7,30.20,North,0,0.0,0.0,93,0.00,SCT,,0.00,WeatherDisplay:10.37,2013-01-20 02:25:00,
2013-01-19 21:30:00,56.5,54.5,30.20,North,0,0.0,0.0,93,0.00,SCT,,0.00,WeatherDisplay:10.37,2013-01-20 02:30:00,
2013-01-19 21:35:00,56.5,54.5,30.19,North,0,0.0,0.0,93,0.00,SCT,,0.00,WeatherDisplay:10.37,2013-01-20 02:35:00,
2013-01-19 21:40:00,56.5,54.8,30.19,North,0,0.0,0.0,94,0.00,SCT,,0.00,WeatherDisplay:10.37,2013-01-20 02:40:00,
2013-01-19 21:46:00,56.7,55.0,30.19,North,0,0.0,0.0,94,0.00,SCT,,0.00,WeatherDisplay:10.37,2013-01-20 02:46:00,
2013-01-19 21:51:00,56.5,54.8,30.19,North,0,0.0,0.0,94,0.00,SCT,,0.00,WeatherDisplay:10.37,2013-01-20 02:51:00,
2013-01-19 21:56:00,56.5,54.8,30.19,North,0,0.0,0.0,94,0.00,SCT,,0.00,WeatherDisplay:10.37,2013-01-20 02:56:00,
2013-01-19 22:03:00,56.5,54.8,30.19,North,0,0.0,0.0,94,0.00,BKN,,0.00,WeatherDisplay:10.37,2013-01-20 03:03:00,
2013-01-19 22:08:00,56.5,54.8,30.19,North,0,0.0,0.0,94,0.00,BKN,,0.00,WeatherDisplay:10.37,2013-01-20 03:08:00,
2013-01-19 22:15:00,56.3,54.6,30.18,North,0,0.0,0.0,94,0.00,BKN,,0.00,WeatherDisplay:10.37,2013-01-20 03:15:00,
2013-01-19 22:20:00,56.1,54.4,30.18,North,0,0.0,0.0,94,0.00,BKN,,0.00,WeatherDisplay:10.37,2013-01-20 03:20:00,
2013-01-19 22:25:00,55.9,54.2,30.18,North,0,0.0,0.0,94,0.00,BKN,,0.00,WeatherDisplay:10.37,2013-01-20 03:25:00,
2013-01-19 22:31:00,55.8,54.1,30.18,North,0,0.0,0.0,94,0.00,BKN,,0.00,WeatherDisplay:10.37,2013-01-20 03:31:00,
2013-01-19 22:36:00,55.8,54.3,30.19,North,0,0.0,0.0,95,0.00,BKN,,0.00,WeatherDisplay:10.37,2013-01-20 03:36:00,
2013-01-19 22:42:00,55.6,53.9,30.19,North,0,0.0,0.0,94,0.00,BKN,,0.00,WeatherDisplay:10.37,2013-01-20 03:42:00,
2013-01-19 22:47:00,55.6,54.2,30.19,North,0,0.0,0.0,95,0.00,BKN,,0.00,WeatherDisplay:10.37,2013-01-20 03:47:00,
2013-01-19 22:52:00,55.2,53.8,30.19,North,0,0.0,0.0,95,0.00,BKN,,0.00,WeatherDisplay:10.37,2013-01-20 03:52:00,
2013-01-19 22:57:00,55.2,53.8,30.18,North,0,0.0,0.0,95,0.00,BKN,,0.00,WeatherDisplay:10.37,2013-01-20 03:57:00,
2013-01-19 23:02:00,55.2,53.8,30.18,North,0,0.0,0.0,95,0.00,BKN,,0.00,WeatherDisplay:10.37,2013-01-20 04:02:00,
2013-01-19 23:07:00,55.0,53.6,30.18,North,0,0.0,0.0,95,0.00,BKN,,0.00,WeatherDisplay:10.37,2013-01-20 04:07:00,
2013-01-19 23:12:00,55.0,53.6,30.17,North,0,0.0,0.0,95,0.00,BKN,,0.00,WeatherDisplay:10.37,2013-01-20 04:12:00,
2013-01-19 23:18:00,55.0,53.6,30.17,North,0,0.0,0.0,95,0.00,BKN,,0.00,WeatherDisplay:10.37,2013-01-20 04:18:00,
2013-01-19 23:23:00,54.7,53.3,30.17,North,0,0.0,0.0,95,0.00,BKN,,0.00,WeatherDisplay:10.37,2013-01-20 04:23:00,
2013-01-19 23:28:00,54.9,53.5,30.17,North,0,0.0,0.0,95,0.00,BKN,,0.00,WeatherDisplay:10.37,2013-01-20 04:28:00,
2013-01-19 23:34:00,55.0,53.6,30.18,North,0,0.0,0.0,95,0.00,BKN,,0.00,WeatherDisplay:10.37,2013-01-20 04:34:00,
2013-01-19 23:39:00,54.7,53.3,30.17,North,0,0.0,0.0,95,0.00,BKN,,0.00,WeatherDisplay:10.37,2013-01-20 04:39:00,
2013-01-19 23:44:00,54.7,53.3,30.17,North,0,0.0,0.0,95,0.00,BKN,,0.00,WeatherDisplay:10.37,2013-01-20 04:44:00,
2013-01-19 23:49:00,54.7,53.3,30.17,North,0,0.0,0.0,95,0.00,BKN,,0.00,WeatherDisplay:10.37,2013-01-20 04:49:00,
2013-01-19 23:54:00,54.7,53.3,30.17,North,0,0.0,0.0,95,0.00,BKN,,0.00,WeatherDisplay:10.37,2013-01-20 04:54:00,
2013-01-19 23:59:00,54.7,53.3,30.17,North,0,0.0,0.0,95,0.00,BKN,,0.00,WeatherDisplay:10.37,2013-01-20 04:59:00,